Location: Newark
(51.3000°N, 178.2000°W)
Time: 01:22:30
(UTC+00:00)

Tiangong - Pass Details

Date: 29 June 2021
Orbit: 373 x 386 km, 41.5° (Epoch: 02 August)

Event Time Altitude Azimuth Distance (km) Brightness Sun altitude
Exits shadow 14:01:30 12° 171° (S) 1,284 3.2 -10.6°
Drops below altitude 10° 14:02:07 10° 160° (SSE) 1,383 3.5 -10.5°
Sets 14:05:02 0° 130° (SE) 2,237 4.8 -10.3°
